sat.trackr.live / text

‹ back to catalog

STARLINK-34970

NORAD 65450 · 2025-194S

PAYLOAD ACTIVE UNKNOWN

§ Identity

Operator
Country
US
Launch date
2025-09-03
Launch site
AFWTR
Launch vehicle
Mass (kg)
RCS (m²)

Purposes: comms

External: N2YO · Heavens-Above · Gunter

§ Orbital elements

Epoch: 2026-05-25T02:50:25.731168Z

Period
95.64 min
Inclination
97.4485°
Eccentricity
0.0002405
Mean motion
15.05643705 rev/d
Perigee alt
547.9 km
Apogee alt
551.2 km
Semi-major
6,927.7 km
B*
2.0124e-4
RAAN
359.2800°
Arg perigee
74.4702°
Mean anomaly
285.6791°
Rev number
4,114

§ Raw data

STARLINK-349701 65450U 25194S   26145.11835337  .00002846  00000+0  20124-3 0  99912 65450  97.4485 359.2800 0002405  74.4702 285.6791 15.05643705 41145

JSON: /api/v1/satellites/65450 · /tle

For live sub-satellite position, see the globe view (requires WebGL).

§ Visibility from observer

Set your observer location to see the next 7 days of passes ≥ 10°. The values pass through the URL so the page stays shareable.

No JS? Fill the form by hand. The geolocation button needs JavaScript.